Home   Weather   Bridgeport   Past weeks
Flag for USA

Past Weather in Bridgeport, Connecticut, USA — Yesterday and Last 2 Weeks

Now
53 °F

Clear.


Feels Like: 51 °F
Forecast: 54 / 46 °F
Wind: 8 mph from Southwest

Location: Sikorsky Memorial Airport

Current Time: Apr 7, 2020 at 10:27:47 pm

Latest Report: Apr 7, 2020 at 8:52 pm


Visibility: 10 mi

Pressure: 29.75 "Hg

Humidity: 51%

Dew Point: 35 °F

Location of BridgeportLocation

Past Weather in Bridgeport — Graph

°F

Bridgeport Temperature Yesterday

Maximum temperature yesterday: 65 °F (at 5:52 pm)
Minimum temperature yesterday: 43 °F (at 2:52 am)
Average temperature yesterday: 53 °F

High & Low Weather Summary for the Past Weeks

 TemperatureHumidityPressure
High65 °F (Mar 27, 2:52 pm)97% (Mar 28, 10:52 pm)30.19 "Hg (Mar 28, 10:52 pm)
Low34 °F (Mar 26, 5:52 am)16% (Mar 27, 5:52 pm)29.54 "Hg (Apr 2, 4:52 pm)
Average47 °F68%29.94 "Hg
* Reported Mar 23 7:13 pm — Apr 7 7:52 pm, Bridgeport. Weather by CustomWeather, © 2020

Note: Actual official high and low records may vary slightly from our data, if they occured in-between our weather recording intervals... More about our weather records

Bridgeport Weather History for the Previous 24 Hours

Scroll right to see more
 ConditionsComfort  
Time TempWeatherWind HumidityBarometerVisibility
7:52 pm
Tue, Apr 7
54 °FClear.8 mph45%29.74 "Hg10 mi
6:52 pm54 °FSunny.7 mph57%29.75 "Hg10 mi
5:52 pm59 °FSunny.18 mph42%29.75 "Hg10 mi
4:52 pm63 °FSunny.17 mph38%29.76 "Hg10 mi
3:52 pm61 °FSunny.13 mph42%29.78 "Hg10 mi
2:52 pm62 °FPassing clouds.14 mph35%29.82 "Hg10 mi
1:52 pm61 °FSunny.15 mph35%29.85 "Hg10 mi
12:52 pm57 °FSunny.9 mph42%29.89 "Hg10 mi
11:52 am56 °FSunny.10 mph46%29.93 "Hg10 mi
10:52 am56 °FOvercast.8 mph34%29.95 "Hg10 mi
9:52 am53 °FPartly sunny.6 mph41%29.97 "Hg10 mi
8:52 am53 °FPassing clouds.5 mph47%29.97 "Hg10 mi
7:52 am50 °FSunny.No wind57%29.97 "Hg10 mi
6:52 am48 °FScattered clouds.No wind54%29.96 "Hg10 mi
5:52 am49 °FOvercast.No wind48%29.94 "Hg10 mi
4:52 am48 °FOvercast.No wind63%29.95 "Hg10 mi
3:52 am52 °FOvercast.5 mph27%29.95 "Hg10 mi
2:52 am50 °FOvercast.5 mph35%29.96 "Hg10 mi
1:52 am51 °FClear.5 mph32%29.95 "Hg10 mi
12:52 am51 °FClear.3 mph35%29.96 "Hg10 mi
11:52 pm
Mon, Apr 6
53 °FClear.3 mph32%29.95 "Hg10 mi
10:52 pm50 °FClear.3 mph74%29.95 "Hg10 mi
Weather by CustomWeather, © 2020

See weather overview

Advertising